Regional Weather Roundup
Issued by NWS

Home | Current Version | Previous Version | Graphics & Text | Print | Product List | Glossary On
Versions: 1 2 3 4 5 6 7 8 9 10 11 12 13 14 15 16 17 18 19 20 21 22 23 24 25 26 27 28 29 30 31 32 33 34 35 36 37 38 39 40 41 42 43 44 45 46 47 48 49 50
000
ASUS45 KCYS 270610
RWRWY

WYOMING REGIONAL WEATHER ROUNDUP
NATIONAL WEATHER SERVICE CHEYENNE WY
1100 PM MST THU FEB 26 2015

NOTE:  "FAIR" INDICATES FEW OR NO CLOUDS BELOW 12,000 FEET
WITH NO SIGNIFICANT WEATHER AND/OR OBSTRUCTIONS TO VISIBILITY.

WYZ001-270700-
YELLOWSTONE NATIONAL PARK

CITY           SKY/WX    TMP DP  RH WIND       PRES   REMARKS
LK YELLOWSTONE   N/A     -5 -10  79 CALM      29.86F
6HR MIN TEMP:  -5; 6HR MAX TEMP:  20;

W YELLOWSTONE  NOT AVBL

$$
WYZ002>013-054>058-071-098>099-270700-
NORTHERN WYOMING

CITY           SKY/WX    TMP DP  RH WIND       PRES   REMARKS
JACKSON        MOCLDY    10   5  79 NW3       29.88F
CODY           FAIR       3   0  85 SE8       30.04F WCI -10
GREYBULL       FAIR      12   5  73 SW6       30.14F WCI   3
6HR MIN TEMP:  12; 6HR MAX TEMP:  21;

WORLAND        CLOUDY    16   9  74 S6        30.11F WCI   7
6HR MIN TEMP:  16; 6HR MAX TEMP:  17; 6HR PCP: TRACE;

SHERIDAN       FAIR      -8 -14  74 CALM      30.15F
6HR MIN TEMP:  -9; 6HR MAX TEMP:   9;

BUFFALO        CLOUDY     7   1  76 SE20      30.08F WCI -13
6HR MIN TEMP:   0; 6HR MAX TEMP:   8;

GILLETTE       FAIR       0  -6  76 S13       30.18F WCI -18
6HR MIN TEMP:  -9; 6HR MAX TEMP:   9;

HULETT         FAIR       0  -9  65 MISG      30.22F
NEWCASTLE      FAIR       0  -4  85 MISG      30.26F

$$
WYZ014>020-022>026-101>103-270700-
CENTRAL WYOMING

CITY           SKY/WX    TMP DP  RH WIND       PRES   REMARKS
BIG PINEY      CLOUDY    12   6  77 S10       29.92F WCI  -1
6HR MIN TEMP:  12; 6HR MAX TEMP:  25; 6HR PCP: TRACE;

PINEDALE       LGT SNOW  14  10  85 S5        29.92S WCI   6
DUBOIS         LGT SNOW   3   1  92 S3        29.91F
LANDER         CLOUDY     4  -3  73 W7        30.03F WCI  -8
6HR MIN TEMP:   4; 6HR MAX TEMP:  11; 6HR PCP:  0.02;

RIVERTON       CLOUDY     5   0  79 NE7       30.05F WCI  -7
6HR MIN TEMP:   4; 6HR MAX TEMP:  13; 6HR PCP:  0.02;

CASPER         FAIR       1  -3  83 NE5       30.07F WCI  -9
6HR MIN TEMP:   1; 6HR MAX TEMP:  11; 6HR PCP: TRACE;

DOUGLAS        CLOUDY     8   4  83 SE15      30.13F WCI  -9
6HR MIN TEMP:   4; 6HR MAX TEMP:  13; 6HR PCP: TRACE;


$$
WYZ021-027>030-104>119-270700-
SOUTHERN WYOMING

CITY           SKY/WX    TMP DP  RH WIND       PRES   REMARKS
EVANSTON       CLOUDY    19  17  92 E12       29.86S WCI   7
6HR MIN TEMP:  21; 6HR MAX TEMP:  25; 6HR PCP:  0.04;

FORT BRIDGER   CLOUDY    14  13  96 NE7       29.91F WCI   4
ROCK SPRINGS   FAIR       6   2  83 E13       29.93F WCI -10
6HR MIN TEMP:   6; 6HR MAX TEMP:  17; 6HR PCP: TRACE;

DIXON          FAIR      16  10  75 CALM      29.90S
RAWLINS        FAIR       4  -1  80 NE16      29.92F WCI -15
6HR MIN TEMP:   4; 6HR MAX TEMP:  16; 6HR PCP: TRACE;

SARATOGA       CLOUDY     5   1  85 W7        29.91S WCI  -7
LARAMIE        FAIR       2  -3  80 SE22      29.91F WCI -20
6HR MIN TEMP:   2; 6HR MAX TEMP:   9; 6HR PCP: TRACE;

CHEYENNE       LGT SNOW   6   2  83 S9        30.04F FOG     WCI  -8
6HR MIN TEMP:   6; 6HR MAX TEMP:  10; 6HR PCP:  0.07;

TORRINGTON     CLOUDY     7   0  73 E12       30.23F WCI  -8
6HR MIN TEMP:   6; 6HR MAX TEMP:  15;

PINE BLUFFS    CLOUDY     9   3  78 E13       30.16F FOG     WCI  -7

$$



USA.gov is the U.S. government's official web portal to all federal, state and local government web resources and services.